Regional Weather Roundup
Issued by NWS Boston, MA

Home | Current Version | Previous Version | Text Only | Print | Product List | Glossary On
Versions: 1 2 3 4 5 6 7 8 9 10 11 12 13 14 15 16 17 18 19 20 21 22 23 24 25 26 27 28
000
ASUS41 KBOX 171110
RWRBOX

REGIONAL WEATHER ROUNDUP
NATIONAL WEATHER SERVICE TAUNTON MA
700 AM EDT THU APR 17 2014

NOTE:  "FAIR" INDICATES FEW OR NO CLOUDS BELOW 12,000 FEET WITH NO
SIGNIFICANT WEATHER AND/OR OBSTRUCTIONS TO VISIBILITY.  THE FOLLOWING
OBSERVATION LOCATIONS DO NOT REPORT PRESENT WEATHER...PROVINCETOWN...
SMITHFIELD...BLOCK ISLAND...KEENE...AND OXFORD.

MAZALL-171200-
EASTERN MASSACHUSETTS

CITY           SKY/WX    TMP DP  RH WIND       PRES   REMARKS
BOSTON         MOSUNNY   33  20  58 NE15G22   30.76R WCI  23
BEVERLY        SUNNY     32  18  56 NE9       30.75R WCI  24
LAWRENCE       MOSUNNY   28  15  58 N10       30.78R WCI  19
BEDFORD        CLEAR     28  18  66 N7        30.75R WCI  21
BLUE HILL        N/A     30  19  63 NE17G25   30.69R WCI  18
NORWOOD        PTCLDY    33  21  61 NE13      30.74R WCI  24
MARSHFIELD       N/A    N/A N/A N/A MISG        N/A
PLYMOUTH       MOSUNNY   34  21  59 NE12G24   30.72R WCI  25
TAUNTON        SUNNY     34  22  61 NE7       30.72R WCI  28
NEW BEDFORD    SUNNY     34  23  64 NE14G20   30.70R WCI  25
$$

MAZALL-171200-
CAPE COD AND THE ISLANDS

CITY           SKY/WX    TMP DP  RH WIND       PRES   REMARKS
FALMOUTH       MOSUNNY   34  23  64 NE20      30.69R WCI  22
HYANNIS        SUNNY     35  23  61 NE18G28   30.67R WCI  24
CHATHAM        MOSUNNY   35  24  64 NE16G24   30.70R WCI  25
PROVINCETOWN   SUNNY     34  21  60 MISG      30.73R
NANTUCKET      SUNNY     35  24  64 NE18G32   30.66R WCI  24
MARTHAS VNYRD  MOSUNNY   36  23  59 NE21G30   30.67R WCI  25
$$

MAZALL-171200-
CENTRAL AND WESTERN MASSACHUSETTS

CITY           SKY/WX    TMP DP  RH WIND       PRES   REMARKS
WORCESTER      CLEAR     25  15  66 NE7       30.69R WCI  17
FITCHBURG      CLEAR     28  16  60 N6        30.76R WCI  22
ORANGE         CLEAR     26  18  71 N5        30.74R WCI  20
SPRINGFIELD    CLEAR     26  25  98 NE6       30.74R WCI  19
WESTFIELD      CLEAR     28  19  69 N8        30.74R WCI  20
NORTH ADAMS    CLEAR     27  14  58 E12       30.71R WCI  17
PITTSFIELD     CLEAR     25  16  68 NE8       30.66R WCI  16
$$

RIZALL-171200-
RHODE ISLAND

CITY           SKY/WX    TMP DP  RH WIND       PRES   REMARKS
PROVIDENCE     PTCLDY    33  21  61 N13       30.72R WCI  24
NEWPORT        CLEAR     33  22  63 NE12      30.70R WCI  24
BLOCK ISLAND   CLEAR     36  21  55 NE16G25   30.67R WCI  26
SMITHFIELD     CLEAR     28  18  64 N9        30.72R WCI  20
WESTERLY       CLEAR     32  20  61 N8        30.71R WCI  25
$$

CTZALL-171200-
CONNECTICUT

CITY           SKY/WX    TMP DP  RH WIND       PRES   REMARKS
BRADLEY INTL   PTCLDY    29  19  66 N8        30.73R WCI  21
HARTFORD       CLEAR     31  17  56 N9        30.73R WCI  23
BRIDGEPORT     CLEAR     34  19  54 NE12      30.69R WCI  25
DANBURY        CLEAR     29  20  69 NE7       30.69R WCI  22
GROTON         CLEAR     33  20  58 NE14      30.69R WCI  23
NEW HAVEN      PTCLDY    32  17  54 N9        30.69R WCI  24
CHESTER        FAIR      32  19  59 NE8       30.69R WCI  25
MERIDEN        CLEAR     31  19  61 N6        30.71R WCI  25
WILLIMANTIC    CLEAR     31  19  61 NE9       30.72R WCI  23
OXFORD         PTCLDY    28  14  54 NE9G18    30.69R WCI  20
$$

MEZ002-015-021-024-NHZ003-005-008-011-012-014-VTZ005-008-171200-
NORTHERN NEW ENGLAND

CITY           SKY/WX    TMP DP  RH WIND       PRES   REMARKS
PORTLAND ME    SUNNY     27  15  61 NE7       30.80R WCI  19
BANGOR ME      MOSUNNY   24  14  65 N3        30.81R
CONCORD NH     CLEAR     22  18  85 CALM      30.77R
MANCHESTER NH  PTCLDY    28  14  55 N8        30.76R WCI  20
NASHUA NH      CLEAR     28  14  55 N5        30.78R WCI  23
PORTSMOUTH NH  PTSUNNY   28  12  50 N9        30.77R WCI  19
JAFFREY NH     CLEAR     23  14  68 CALM      30.71R
KEENE NH       CLEAR     25  16  68 NE3       30.75R
BURLINGTON VT  PTCLDY    23  17  78 E5        30.74R WCI  17
MT. WASHINGTON MOSUNNY   19  -4  35 W10         N/A  WCI   8
$$

NYZ052-076-171200-
EASTERN NEW YORK

CITY           SKY/WX    TMP DP  RH WIND       PRES   REMARKS
ALBANY         MOCLDY    26  18  71 N3        30.72R
NEW YORK CITY  PTCLDY    37  23  56 NE20      30.67R WCI  27
$$

ANZALL-171200-
MARINE OBSERVATIONS

STATION/POSITION TIME  TEMP    WIND        PRES    VSBY  WAVE
                       AIR SEA DIR/SP/G                  HT/PER
                 (UTC) (F)     (DEG/KT/KT) (MB)    (MI)  (FT/S)
BOSTON BUOY      1050   34 40   50/ 19/ 23 1041.0R         5/ 6
BUZZARDS BAY     1000           30/ 24/ 27 1038.2R
NANTUCKET SOUND  1050   37 44   50/ 21/ 27 1038.0R         4/ 4
MASS BAY-STELLWA 1004   33 40   40/ 19/ 23 1039.6R  1 7/8  6/11
ISLE OF SHOALS   1100   31      50/ 25/ 27 1040.9R
S OF BLOCK IS    1025      42                N/A           6/ 5
$$

......................KEY.........................
  SKY/WX - SKY CONDITION/PRESENT WEATHER
  TMP    - TEMPERATURE IN FAHRENHEIT
  DWPT   - DEWPOINT IN FAHRENHEIT
  RH     - RELATIVE HUMIDITY IN PERCENT
  WIND   - DIRECTION AND SPEED IN MPH
  PRES   - MEAN SEA LEVEL PRESSURE IN INCHES OF HG
  WCI    - WIND CHILL INDEX
  VSB    - VISIBILITY IN MILES
  HX     - HEAT INDEX
  TC     - TEMPERATURE IN CELSIUS
  VRB    - VARIABLE WIND DIRECTION
  N/A    - NOT AVAILABLE



USA.gov is the U.S. government's official web portal to all federal, state and local government web resources and services.